Location: New Canada
(47.1017°N, 68.5042°W)
Time: 21:08:43
(UTC+00:00)

RS-44 - Pass Details

Date: 01 April 2023
Orbit: 1175 x 1510 km, 82.5° (Epoch: 02 June)

Event Time Altitude Azimuth Distance (km) Brightness Sun altitude
Rises 07:31:09 0° 342° (NNW) 4,396 ? -25.9°
Reaches altitude 10° 07:34:26 10° 330° (NNW) 3,470 ? -25.5°
Enters shadow 07:40:47 26° 280° (W) 2,550 ? -24.6°
